Location: Newark
(41.2758°N, 92.6808°W)
Time: 14:59:53
(UTC+00:00)

N. Korean satellite - Visible Passes

Search period start: 22 September 2019 00:00
Search period end: 02 October 2019 00:00
Orbit: 455 x 509 km, 97.2° (Epoch: 21 September)

Date Brightness Start Highest point End Pass type
(mag) Time Alt. Az. Time Alt. Az. Time Alt. Az.
24 Sep 9.9 11:12:04 10° ENE 11:13:57 14° E 11:15:50 10° SE visible
26 Sep 10.5 00:29:57 10° WSW 00:31:12 11° W 00:32:25 10° WNW visible
27 Sep 9.4 11:28:55 10° NE 11:31:45 23° E 11:34:35 10° SSE visible
28 Sep 10.2 11:05:09 10° ENE 11:06:21 11° E 11:07:32 10° ESE visible
30 Sep 10.1 00:21:40 10° SW 00:23:34 14° W 00:25:28 10° WNW visible
01 Oct 9.7 11:21:34 10° NE 11:24:08 19° E 11:26:43 10° SE visible
